TimeCDT,TemperatureF,Dew PointF,Humidity,Sea Level PressureIn,VisibilityMPH,Wind Direction,Wind SpeedMPH,Gust SpeedMPH,PrecipitationIn,Events,Conditions,WindDirDegrees,DateUTC
12:53 AM,86.0,75.0,70,30.02,10.0,SSE,13.8,-,N/A,,Clear,160,2013-06-25 05:53:00
1:53 AM,86.0,75.9,72,30.01,10.0,SSE,13.8,-,N/A,,Mostly Cloudy,160,2013-06-25 06:53:00
2:12 AM,86.0,75.2,70,30.01,10.0,SSE,15.0,-,N/A,,Mostly Cloudy,160,2013-06-25 07:12:00
2:40 AM,86.0,77.0,74,30.01,10.0,SSE,12.7,23.0,N/A,,Overcast,160,2013-06-25 07:40:00
2:53 AM,86.0,77.0,74,30.01,10.0,SSE,13.8,20.7,N/A,,Overcast,160,2013-06-25 07:53:00
3:53 AM,86.0,75.9,72,30.01,10.0,South,16.1,21.9,N/A,,Overcast,170,2013-06-25 08:53:00
4:20 AM,86.0,75.2,70,30.00,10.0,South,12.7,21.9,N/A,,Overcast,170,2013-06-25 09:20:00
4:37 AM,86.0,75.2,70,30.00,10.0,SSE,15.0,-,N/A,,Overcast,160,2013-06-25 09:37:00
5:19 AM,86.0,77.0,74,30.00,10.0,SSE,12.7,19.6,N/A,,Overcast,160,2013-06-25 10:19:00
6:32 AM,86.0,75.2,70,30.01,10.0,South,13.8,-,N/A,,Mostly Cloudy,180,2013-06-25 11:32:00
6:53 AM,86.0,75.0,70,30.01,9.0,South,13.8,20.7,N/A,,Mostly Cloudy,180,2013-06-25 11:53:00
7:06 AM,86.0,75.2,70,30.01,9.0,South,11.5,-,N/A,,Mostly Cloudy,180,2013-06-25 12:06:00
7:53 AM,87.1,75.9,69,30.02,9.0,South,12.7,-,N/A,,Mostly Cloudy,180,2013-06-25 12:53:00
8:15 AM,87.8,75.2,66,30.02,10.0,South,11.5,21.9,N/A,,Scattered Clouds,180,2013-06-25 13:15:00
8:53 AM,88.0,75.0,65,30.02,10.0,South,13.8,19.6,N/A,,Mostly Cloudy,180,2013-06-25 13:53:00
9:01 AM,87.8,75.2,66,30.03,9.0,South,15.0,-,N/A,,Mostly Cloudy,180,2013-06-25 14:01:00
9:53 AM,89.1,75.9,65,30.03,10.0,South,16.1,-,N/A,,Mostly Cloudy,170,2013-06-25 14:53:00
10:02 AM,89.6,75.2,62,30.03,9.0,South,17.3,-,N/A,,Scattered Clouds,170,2013-06-25 15:02:00
10:12 AM,89.6,75.2,62,30.03,10.0,South,16.1,-,N/A,,Mostly Cloudy,180,2013-06-25 15:12:00
10:43 AM,89.6,75.2,62,30.03,10.0,SSW,12.7,-,N/A,,Scattered Clouds,200,2013-06-25 15:43:00
10:53 AM,90.0,75.0,61,30.04,10.0,SSW,13.8,-,N/A,,Partly Cloudy,200,2013-06-25 15:53:00
11:53 AM,91.0,75.0,59,30.03,10.0,South,16.1,21.9,N/A,,Partly Cloudy,170,2013-06-25 16:53:00
12:53 PM,91.0,73.9,57,30.02,10.0,South,13.8,-,N/A,,Clear,180,2013-06-25 17:53:00
1:53 PM,93.0,75.0,56,30.01,10.0,SSE,16.1,21.9,N/A,,Clear,160,2013-06-25 18:53:00
2:53 PM,93.0,75.0,56,30.00,10.0,South,15.0,23.0,N/A,,Clear,180,2013-06-25 19:53:00
3:53 PM,93.0,73.9,54,29.99,10.0,SSE,17.3,25.3,N/A,,Clear,160,2013-06-25 20:53:00
4:53 PM,93.0,73.9,54,29.98,10.0,SSE,16.1,23.0,N/A,,Scattered Clouds,160,2013-06-25 21:53:00
5:53 PM,91.0,73.0,55,29.96,10.0,SSE,17.3,-,N/A,,Scattered Clouds,160,2013-06-25 22:53:00
6:50 PM,89.6,73.4,59,29.95,10.0,SSE,16.1,-,N/A,,Mostly Cloudy,160,2013-06-25 23:50:00
6:53 PM,90.0,73.9,59,29.95,10.0,South,15.0,21.9,N/A,,Mostly Cloudy,170,2013-06-25 23:53:00
7:12 PM,89.6,73.4,59,29.95,10.0,SSE,15.0,-,N/A,,Scattered Clouds,160,2013-06-26 00:12:00
7:53 PM,88.0,73.9,63,29.94,10.0,SSE,16.1,21.9,N/A,,Scattered Clouds,160,2013-06-26 00:53:00
8:53 PM,86.0,73.9,67,29.94,10.0,SSE,10.4,27.6,N/A,,Partly Cloudy,160,2013-06-26 01:53:00
9:53 PM,86.0,75.0,70,29.95,10.0,SSE,13.8,-,N/A,,Partly Cloudy,160,2013-06-26 02:53:00
10:50 PM,86.0,75.2,70,29.95,10.0,SSE,16.1,-,N/A,,Mostly Cloudy,150,2013-06-26 03:50:00
10:53 PM,86.0,75.0,70,29.95,10.0,SSE,16.1,-,N/A,,Mostly Cloudy,150,2013-06-26 03:53:00
11:32 PM,86.0,73.4,66,29.96,10.0,SSE,15.0,23.0,N/A,,Partly Cloudy,150,2013-06-26 04:32:00
11:53 PM,84.9,75.0,72,29.96,10.0,SSE,15.0,-,N/A,,Partly Cloudy,160,2013-06-26 04:53:00